GALAXY 28 (G-28)

Last updated on Fri Oct 11 2024 00:02:38 GMT+0000 (Coordinated Universal Time)

1 28702U 05022A 24284.52866556 -.00000180 00000+0 00000+0 0 9999 2 28702 1.7059 86.5107 0005786 159.6445 234.7895 1.00271847 45827
UTC large
Height (km)
Speed (km/s)
/
Latitude / Longitude
Inclination (degrees)
Orbital Period (minutes)
Azimuth
Elevation
Range (km)
Doppler Factor

Next 0 passes for location: London (51.5072 / 0.1276)

Sorry there are no passes over London.